Weather History for Chadron, NE

Change the Weather History Date:

Sunday, December 8, 2013

  Actual Average Record
Temperature  
Mean Temperature 2 °F 25 °F  
Max Temperature 8 °F 39 °F 68 °F (1939)
Min Temperature -5 °F 11 °F -21 °F (2005)
Degree Days  
Heating Degree Days 63 40  
Month to date heating degree days 435 313  
Since 1 July heating degree days 2071 1997  
Cooling Degree Days 0 0  
Month to date cooling degree days 0 0  
Year to date cooling degree days 917 712  
Moisture  
Dew Point -7 °F    
Average Humidity 71    
Maximum Humidity 82    
Minimum Humidity 60    
Precipitation  
Precipitation T in 0.01 in 0.35 in (1994)
Month to date precipitation T 0.13  
Year to date precipitation 19.10 17.66  
Sea Level Pressure  
Sea Level Pressure 30.18 in    
Wind  
Wind Speed 9 mph (West)    
Max Wind Speed 25 mph    
Max Gust Speed 31 mph    
Visibility 8 miles    
Events Snow    
T = Trace of Precipitation, MM = Missing Value Source: NWS Daily Summary

Daily Weather History Graph

Daily Weather History Graph

Search for Another Location

Airport:

Trip Planner

Search our weather history database for the weather conditions in past years. The results will help you decide how hot, cold, wet, or windy it might be!

Date:

Astronomy

Dec. 08, 2013 Rise Set
Actual Time 7:10 AM MST 4:18 PM MST
Civil Twilight 6:38 AM MST 4:50 PM MST
Nautical Twilight 6:03 AM MST 5:25 PM MST
Astronomical Twilight 5:28 AM MST 6:00 PM MST
Moon 11:25 AM MST (12/8) 11:17 PM MST (12/8)
Length of Visible Light 10h 11m
Length of Day
9h 07m
Waxing Crescent, 40% of the Moon is Illuminated
Dec 8
Waxing Crescent
Dec 9
First Quarter
Dec 17
Full
Dec 25
Last Quarter
Jan 1
New

Hourly Weather History & Observations

Time (MST) Temp. Windchill Dew Point Humidity Pressure Visibility Wind Dir Wind Speed Gust Speed Precip Events Conditions
12:53 AM -2.0 °F -13.9 °F -8.0 °F 76% 30.22 in 9.0 mi NE 5.8 mph - N/A   Overcast
1:53 AM -2.9 °F -15.0 °F -8.0 °F 79% 30.21 in 9.0 mi North 5.8 mph - N/A   Overcast
2:53 AM -4.0 °F -12.4 °F -9.0 °F 79% 30.20 in 5.0 mi North 3.5 mph - N/A   Haze
3:53 AM -4.0 °F - -9.0 °F 79% 30.18 in 7.0 mi Calm Calm - 0.00 in   Overcast
4:53 AM -5.1 °F -13.6 °F -9.9 °F 80% 30.18 in 6.0 mi NW 3.5 mph - 0.00 in   Haze
5:53 AM -2.9 °F - -9.0 °F 75% 30.17 in 5.0 mi Calm Calm - 0.00 in Snow Light Snow
6:11 AM -2.2 °F -10.4 °F -9.4 °F 71% 29.90 in 2.0 mi WNW 3.5 mph - 0.00 in Snow Light Snow
6:41 AM -2.2 °F -10.4 °F -7.6 °F 78% 29.89 in 3.0 mi WSW 3.5 mph - 0.00 in Snow Light Snow
6:53 AM -2.9 °F -11.2 °F -8.0 °F 79% 30.17 in 4.0 mi WSW 3.5 mph - 0.00 in Snow Light Snow
7:53 AM -4.0 °F -16.3 °F -9.0 °F 79% 30.19 in 7.0 mi SW 5.8 mph - 0.00 in   Overcast
8:53 AM -2.0 °F -13.9 °F -8.0 °F 76% 30.19 in 7.0 mi WSW 5.8 mph - N/A   Overcast
9:53 AM -0.9 °F -15.3 °F -8.0 °F 72% 30.20 in 10.0 mi SW 8.1 mph - 0.00 in   Mostly Cloudy
10:53 AM 1.9 °F -16.2 °F -9.0 °F 60% 30.18 in 10.0 mi West 13.8 mph - N/A   Partly Cloudy
11:23 AM 1.4 °F -17.6 °F -7.6 °F 66% 29.92 in 2.5 mi West 15.0 mph - N/A   Haze
11:32 AM 1.4 °F -18.2 °F -7.6 °F 66% 29.92 in 10.0 mi West 16.1 mph - N/A   Clear
11:53 AM 3.9 °F -15.0 °F -5.1 °F 66% 30.17 in 10.0 mi WNW 16.1 mph - N/A   Scattered Clouds
12:53 PM 3.9 °F -15.0 °F -6.0 °F 64% 30.17 in 10.0 mi WNW 16.1 mph - N/A   Clear
1:53 PM 6.1 °F -7.8 °F -5.1 °F 60% 30.17 in 10.0 mi NW 9.2 mph - N/A   Clear
2:53 PM 7.0 °F -5.7 °F -2.9 °F 64% 30.19 in 10.0 mi WNW 8.1 mph - N/A   Clear
3:53 PM 7.0 °F -6.6 °F -4.0 °F 61% 30.21 in 10.0 mi NW 9.2 mph - N/A   Clear
4:53 PM 6.1 °F - -6.0 °F 58% 30.25 in 10.0 mi Calm Calm - N/A   Clear
5:53 PM 3.9 °F -5.3 °F -6.0 °F 64% 30.26 in 10.0 mi WSW 4.6 mph - N/A   Partly Cloudy
6:26 PM 3.2 °F -16.5 °F -5.8 °F 66% 30.01 in 10.0 mi West 17.3 mph - N/A   Clear
6:53 PM 1.9 °F -17.5 °F -7.1 °F 66% 30.31 in 10.0 mi West 16.1 mph - N/A   Clear
7:53 PM 3.0 °F -14.8 °F -7.1 °F 63% 30.32 in 10.0 mi WSW 13.8 mph - N/A   Scattered Clouds
8:53 PM 3.0 °F -16.1 °F -7.1 °F 63% 30.33 in 10.0 mi West 16.1 mph - N/A   Overcast
9:53 PM 3.0 °F -13.3 °F -6.0 °F 66% 30.35 in 10.0 mi West 11.5 mph - N/A   Scattered Clouds
10:53 PM 5.0 °F -14.7 °F -2.9 °F 70% 30.35 in 10.0 mi WNW 18.4 mph 21.9 mph N/A   Mostly Cloudy
11:53 PM 3.9 °F -13.0 °F -4.0 °F 70% 30.34 in 10.0 mi West 12.7 mph - N/A   Clear